Rochester, NH

4:20 AM EDT on May 25, 2018 (GMT -0400)
Skyhaven

Weather History for KDAW - November, 2011

Change the Weather History Date:

Wednesday, November 23, 2011

  Actual Average (KPSM) Record (KPSM)
Temperature  
Mean Temperature 34 °F -  
Max Temperature 37 °F 44 °F 68 °F (1999)
Min Temperature 28 °F 29 °F 13 °F (1989)
Degree Days  
Heating Degree Days 32    
Moisture  
Dew Point 31 °F    
Average Humidity 91    
Maximum Humidity 100    
Minimum Humidity 81    
Precipitation  
Precipitation 1.19 in - - ()
Sea Level Pressure  
Sea Level Pressure 29.87 in    
Wind  
Wind Speed 9 mph (NNE)    
Max Wind Speed 18 mph    
Max Gust Speed 32 mph    
Visibility 7 miles    
Events Rain , Snow    
Averages and records for this station are not official NWS values.
T = Trace of Precipitation, MM = Missing Value Source: NWS Daily Summary

Daily Weather History Graph

Daily Weather History Graph

Search for Another Location

Airport or City:

Astronomy

Nov. 23, 2011 Rise Set
Actual Time 6:46 AM EST 4:13 PM EST
Civil Twilight 6:15 AM EST 4:44 PM EST
Nautical Twilight 5:40 AM EST 5:19 PM EST
Astronomical Twilight 5:06 AM EST 5:53 PM EST
Moon 4:45 AM EST (11/23) 2:53 PM EST (11/23)
Length of Visible Light 10h 29m
Length of Day
9h 26m
Waning Crescent, 4% of the Moon is Illuminated
Nov 23
Waning Crescent
Nov 25
New
Dec 2
First Quarter
Dec 10
Full
Dec 17
Last Quarter

Hourly Weather History & Observations

Time (EST) Temp. Windchill Dew Point Humidity Pressure Visibility Wind Dir Wind Speed Gust Speed Precip Events Conditions
12:51 AM 36.0 °F 33.3 °F 34.0 °F 93% 30.20 in 5.0 mi NNE 3.5 mph - 0.02 in Rain Light Rain
1:51 AM 36.0 °F 32.1 °F 35.1 °F 97% 30.17 in 5.0 mi ENE 4.6 mph - 0.07 in Rain Rain
2:18 AM 37.4 °F 33.8 °F 35.6 °F 93% 30.13 in 5.0 mi NE 4.6 mph - 0.04 in Rain Rain
2:51 AM 37.0 °F 33.3 °F 36.0 °F 96% 30.09 in 4.0 mi ENE 4.6 mph - 0.10 in Rain Rain
3:51 AM 37.0 °F 29.8 °F 35.1 °F 93% 30.04 in 4.0 mi East 10.4 mph 17.3 mph 0.14 in Rain Rain
4:51 AM 35.1 °F 29.3 °F 34.0 °F 96% 30.00 in 5.0 mi NE 6.9 mph - 0.17 in Rain Rain
5:51 AM 37.0 °F 29.3 °F 35.1 °F 93% 29.95 in 5.0 mi East 11.5 mph 21.9 mph 0.17 in Rain Rain
6:13 AM 35.6 °F 27.5 °F 35.6 °F 100% 29.92 in 4.0 mi East 11.5 mph 18.4 mph 0.07 in Rain Heavy Rain
6:51 AM 35.1 °F 30.1 °F 34.0 °F 96% 29.89 in 4.0 mi NE 5.8 mph - 0.20 in Rain Rain
7:51 AM 34.0 °F 25.5 °F 33.1 °F 96% 29.82 in 4.0 mi NE 11.5 mph - 0.18 in Rain Rain
8:51 AM 35.1 °F 28.6 °F 34.0 °F 96% 29.79 in 8.0 mi NNE 8.1 mph 18.4 mph 0.09 in Rain Light Rain
9:51 AM 33.1 °F 23.9 °F 32.0 °F 96% 29.75 in 4.0 mi North 12.7 mph 18.4 mph 0.04 in Rain Light Rain
10:47 AM 33.8 °F 23.9 °F 32.0 °F 93% 29.73 in 2.5 mi North 15.0 mph 25.3 mph 0.01 in Snow Light Snow
10:51 AM 33.1 °F 23.0 °F 32.0 °F 96% 29.73 in 2.5 mi North 15.0 mph 25.3 mph 0.01 in Snow Light Snow
11:04 AM 33.8 °F 23.5 °F 32.0 °F 93% 29.70 in 4.0 mi NNE 16.1 mph 24.2 mph 0.00 in Rain Light Rain
11:51 AM 33.1 °F 23.4 °F 30.9 °F 92% 29.69 in 10.0 mi North 13.8 mph 24.2 mph 0.00 in Rain Light Rain
12:33 PM 33.8 °F 23.5 °F 30.2 °F 87% 29.67 in 10.0 mi North 16.1 mph 23.0 mph 0.00 in   Overcast
12:51 PM 33.1 °F 21.9 °F 30.9 °F 92% 29.66 in 10.0 mi North 18.4 mph 25.3 mph 0.00 in   Overcast
1:51 PM 33.1 °F 23.9 °F 30.0 °F 89% 29.67 in 10.0 mi North 12.7 mph 32.2 mph N/A   Overcast
3:51 PM 33.1 °F 22.6 °F 30.0 °F 89% 29.75 in 10.0 mi North 16.1 mph 25.3 mph N/A   Overcast
4:51 PM 33.1 °F 24.4 °F 28.9 °F 85% 29.79 in 10.0 mi North 11.5 mph 20.7 mph N/A   Overcast
5:51 PM 33.1 °F 24.4 °F 28.9 °F 85% 29.82 in 10.0 mi North 11.5 mph 20.7 mph N/A   Overcast
6:51 PM 33.1 °F 24.4 °F 28.9 °F 85% 29.84 in 10.0 mi NNW 11.5 mph 19.6 mph 0.00 in   Overcast
7:23 PM 33.8 °F 25.3 °F 28.4 °F 81% 29.85 in 10.0 mi North 11.5 mph 21.9 mph N/A   Overcast
7:51 PM 32.0 °F 24.2 °F 28.0 °F 85% 29.86 in 10.0 mi North 9.2 mph 18.4 mph N/A   Mostly Cloudy
8:00 PM 32.0 °F 24.2 °F 28.4 °F 87% 29.86 in 10.0 mi North 9.2 mph 19.6 mph N/A   Mostly Cloudy
8:51 PM 32.0 °F 23.6 °F 28.0 °F 85% 29.91 in 10.0 mi North 10.4 mph - N/A   Scattered Clouds
9:51 PM 32.0 °F 23.0 °F 27.0 °F 82% 29.93 in 10.0 mi North 11.5 mph - N/A   Overcast
10:51 PM 30.9 °F 22.2 °F 26.1 °F 82% 29.93 in 10.0 mi North 10.4 mph - N/A   Clear
11:51 PM 28.9 °F 21.1 °F 25.0 °F 85% 29.95 in 10.0 mi North 8.1 mph - N/A   Clear